User: anonymous   Login
Location: Unspecified
(0.0000°N, 0.0000°E)
Time: 21:15:33
(UTC+00:00)
Language:

NANOSAT-1 - Orbit

View from above orbital plane
View from above orbital plane
View from above satellite
View from above satellite

Ground track
Ground track

The orbit data is extracted from the following two-line orbital elements,

1 28493U 04049B   17141.75079904 +.00000102 +00000-0 +23774-4 0  9998
2 28493 098.2039 211.0166 0005914 088.3340 271.8545 14.73311374667039
Epoch (UTC): 21 May 2017 18:01:09
Eccentricity: 0.0005914
inclination: 98.2039°
perigee height: 646 km
apogee height: 654 km
right ascension of ascending node: 211.0166°
argument of perigee: 88.3340°
revolutions per day: 14.73311374
mean anomaly at epoch: 271.8545°
orbit number at epoch: 66703

The dashed part of the orbit path shows where the satellite is in the earth's shadow,  

DLR